DRAGON CRS-29

Last updated on Sat Dec 23 2023 00:02:06 GMT+0000 (Coordinated Universal Time)

1 58255U 23173A 23356.71741868 .00206347 25634-4 45621-3 0 9999 2 58255 51.6411 114.5130 0125974 156.4875 290.1287 15.84891964 6622

Satellite not in orbit

DRAGON CRS-29